www.pogodaiklimat.ru

Погода и климат >> Архив погоды >> Коста-Рика >> Сан-Хосе аэропорт


ПОГОДА в Сан-Хосе аэропорту

  • Прогноз погоды в Сан-Хосе аэропорту
  • Монитор погоды в Сан-Хосе аэропорту

АРХИВ ПОГОДЫ в Сан-Хосе аэропорту

Время (UTC), дата Ветер
(напр.,м/с)
 
Видим.   Явления Облачность Т
(С)
Тd
(С)
f
(%)
Тe
(С)
Тes
(С)
Комфортность P
(гПа)
Po
(гПа)
Тmin
(С)
Tmax
(С)
R
(мм)
R24
(мм)
S
(см)
12 11.09 ЮВ 6 10 км 10/0
[As op Ci sp]
+20.5 +15.9 75 +23 +23 комфорт 1011.0 902.6 +19.5 +28.7
15 11.09 ЮВ 13 10 км 10/1 1000 м
[Sc As op]
+22.9 +16.7 68 +28 +28 душно 1010.9 903.4
18 11.09 В 8 10 км 9/1 1350 м
[Sc Ac trans Cs]
+26.1 +17.6 59 +30 +32 душно 1007.4 901.2 +19.5 +27.1
21 11.09 В 12 10 км 10/3 1050 м
[Sc Ac As]
+25.2 +17.0 60 +29 +29 душно 1006.4 900.2
00 12.09 ЮВ 7 10 км 10/4 1200 м
[Sc Ac As]
+22.3 +16.6 70 +27 +27 душно 1008.6 901.3 +19.5 +28.5
12 12.09 ЮВ 4 10 км морось 10/4 1200 м
[Sc Ac As]
+20.9 +17.5 81 +25 +25 комфорт 1008.9 901.0 +19.5 +28.5
15 12.09 ЮВ 5 10 км дождь {морось} 10/5 750 м
[Sc Ac As]
+20.3 +18.4 89 +24 +25 комфорт 1011.5 903.2
18 12.09 ЮВ 7 10 км в посл. час дождь {морось} 10/4 1050 м
[Sc Ac As]
+22.6 +17.5 73 +28 +29 душно 1009.4 901.7 +19.5 +22.9 5
21 12.09 В 5 10 км 10/1 1350 м
[Sc Ac As]
+23.6 +15.5 60 +27 +28 жарко 1006.8 899.7
00 13.09 ЮВ 1 10 км 10/1 240 м
[St Ac As]
+20.7 +16.9 79 +25 +25 комфорт 1008.0 900.3 +19.5 +23.7
12 13.09 ЮВ 10 10 км 9/0
[Ac trans Cs]
+20.1 +15.8 76 +22 +22 комфорт 1009.8 901.4 +18.1 +23.8
15 13.09 В 13 10 км 9/0
[Cs]
+25.1 +16.0 57 +28 +28 жарко 1009.8 902.7
18 13.09 В 11 10 км 10/1 1200 м
[Cu hum Ac trans Cs]
+26.1 +16.1 54 +29 +29 жарко 1008.2 902.1 -8.1 +27.5
21 13.09 В 12 10 км 10/3 900 м
[Sc Ac trans Cs]
+24.3 +16.3 61 +28 +28 душно 1007.5 901.0
00 14.09 З 6 10 км местами туман поземный 5/5 300 м
[St]
+21.1 +19.6 91 +26 +26 душно 1008.3 901.0 +18.1 +27.5
12 14.09 В 8 10 км 10/0
[Ac As]
+21.7 +14.9 65 +25 +25 комфорт 1010.1 901.9 +19.9 +27.5
15 14.09 СЗ 4 10 км 10/0
[Ac As]
+23.3 +17.8 71 +29 +32 душно 1010.2 902.9
18 14.09 З 5 10 км 10/3 1050 м
[Sc Ac As]
+24.9 +17.8 65 +29 +32 душно 1008.9 902.1 +19.9 +25.4
21 14.09 З 6 10 км {дождь} 10/5 900 м
[Sc Ac trans]
+24.7 +17.9 66 +29 +30 душно 1007.8 901.2
00 15.09 З 2 5000 м дымка {дождь} 10/10 300 м
[St]
+21.7 +19.3 86 +27 +27 душно 1009.8 902.2 +19.9 +26.2 0.0
12 15.09 ЮВ 8 10 км 10/1 1200 м
[Sc As op]
+21.6 +17.1 76 +26 +26 душно 1009.8 901.8 +19.7 +26.2
15 15.09 В 10 10 км 3/3 1200 м
[Sc]
+25.4 +18.0 64 +30 +30 душно 1009.9 903.2
18 15.09 В 6 10 км 9/4 1050 м
[Sc Ac trans]
+26.1 +19.4 67 +32 +34 очень
душно
1008.2 902.0 +20.5 +26.6
21 15.09 В 4 4000 м гроза, ливневой дождь 10/4 450 м
[Cb calv Ac As]
+19.6 +18.4 93 +22 +23 комфорт 1009.8 901.6
00 16.09 З 4 4000 м слаб. дождь {гроза} 10/1 90 м
[St Ac As]
+19.5 +18.5 94 +22 +22 комфорт 1011.3 902.7 +19.0 +26.6 19
12 16.09 ЮВ 6 10 км 9/1 1200 м
[Sc Cs]
+19.4 +15.9 80 +21 +21 комфорт 1012.7 903.5 +17.5 +26.6
15 16.09 ЮВ 6 10 км 10/0
[Ac As]
+22.5 +16.2 68 +27 +28 душно 1013.0 904.9
18 16.09 СЗ 6 10 км 10/1 1200 м
[St Ac As]
+23.0 +18.4 75 +29 +31 очень
душно
1011.2 903.6 +17.5 +25.0
21 16.09 ЮЗ 5 10 км слаб. дождь 10/5 1350 м
[Sc Cs]
+23.5 +18.7 74 +28 +30 душно 1008.7 902.0
00 17.09 З 2 10 км местами туман поземный {дождь} 9/9 300 м
[Frnb]
+20.9 +19.4 91 +26 +26 душно 1010.4 902.5 +17.5 +25.1 0.0
12 17.09 СЗ 1 600 м туман местами 10/10 120 м
[St]
+19.0 +18.6 98 +22 +22 комфорт 1013.2 904.2 +18.8 +25.1 0.1
15 17.09 С 3 10 км {туман} 3/3 1050 м
[Sc]
+25.3 +17.0 60 +29 +37 душно 1012.2 905.0
18 17.09 В 6 10 км {туман} 8/8 1200 м
[Cu Sc]
+26.9 +17.7 57 +31 +33 душно 1010.0 903.8 +18.8 +27.9
21 17.09 штиль 0 8000 м слаб. дождь 10/5 300 м
[Cu Sc Ac As]
+21.3 +19.1 87 +26 +28 душно 1010.0 902.4
00 18.09 штиль 0 10 км туман местами {гроза, ливн. осадки} 10/5 300 м
[Cb calv Ac As]
+20.3 +19.1 93 +24 +24 комфорт 1012.5 904.1 +18.8 +27.9 2

 

Местоположение метеостанции Сан-Хосе аэропорт (Коста-Рика): широта 9.96 долгота -84.14 высота над уровнем моря 994 м.

В архиве по умолчанию представлена погода в Сан-Хосе аэропорту за последнюю неделю. Архивные данные за месяц целиком и за предыдущие месяцы, начиная с января 2011 года, Вы можете получить, выбрав интересующий диапазон дат из раскрывающегося списка и нажав кнопку "Ввод!".


*Определитесь, кто Вы:
робот инопланетянин человек

Внимание! Время в таблицах - всемирное. Для получения местного времени необходимо прибавить поправку, которая равна -6 ч.

Смотрите также архив погоды в соседних городах и на ближайших метеорологических станциях:

Погода в Сан-Хосе (Коста-Рика) (8 км)
Погода в Пуэрто-Лимоне (Коста-Рика) (119 км)
Погода в Либерии (Коста-Рика) (159 км)
Погода в Блуфилдсе (Никарагуа) (230 км)
Погода в Ривасе (Никарагуа) (246 км)
Погода в Давиде (Панама) (257 км)
Погода в Хуигальпе (Никарагуа) (273 км)
Погода в Манагуа (Никарагуа) (329 км)
Погода на Острове Сан-Андрес (Колумбия) (394 км)
Погода в Хинотеге (Никарагуа) (401 км)

Пояснения к столбцам:

Ветер - указаны скорость ветра в м/с - средняя за 10 мин, порывы в срок и между сроками (в фигурных скобках) и направление, откуда дует ветер: С - северный, СВ - северо-восточный, В - восточный, ЮВ - юго-восточный, Ю - южный, ЮЗ - юго-западный, З - западный, СЗ - северо-западный.
Видимость - горизонтальная дальность видимости в метрах или километрах. При видимости от 1 до 10 км при отсутствии осадков обычно наблюдается дымка, при ухудшении видимости до 1 км и менее - туман. В сухую погоду видимость может ухудшаться дымом, пылью или мглою.
Явления - указаны атмосферные явления, наблюдавшиеся в срок или в последний час перед сроком; фигурными скобками обозначены явления, наблюдавшиеся между сроками (за 1-3 часа до срока); квадратными скобками обозначены град или гололедные отложения с указанием их диаметра в мм.
Облачность - указаны через наклонную черту общая и нижняя облачность в баллах и высота нижней границы облаков в метрах; квадратными скобками обозначены формы облаков: Ci - перистые, Cs - перисто-слоистые, Cc - перисто-кучевые, Ac - высококучевые, As - высокослоистые, Sc - слоисто-кучевые, Ns - слоисто-дождевые, Cu - кучевые, Cb - кучево-дождевые. Подробнее классификацию облаков см. в Атласе облаков (PDF).
T - Температура воздуха - температура, измеренная на высоте 2 м над землей.
Td - Температура точки росы - температура, при понижении до которой содержащийся в воздухе водяной пар достигнет насыщения.
f - Относительная влажность воздуха - влажноcть воздуха, измеренная на высоте 2 м над землей.
Te - Эффективная температура - температура, которую ощущает одетый по сезону человек в тени. Характеристика душности погоды. При расчете учитывается влияние влажности воздуха и скорости ветра на теплоощущения человека.
Tes - Эффективная температура на солнце - температура, которую ощущает человек, с поправкой на солнечный нагрев. Характеристика знойности погоды. Зависит от высоты солнца над горизонтом, облачности и скорости ветра. Ночью, в пасмурную погоду, а также при ветре 12 м/с и более поправка равна нулю.
P - Атмосферное давление - приведенное к уровню моря атмосферное давление.
Po - Атмосферное давление - измеренное на уровне метеостанции атмосферное давление.
Tmin - Минимальная температура - минимум температуры воздуха на высоте 2 м над землей.
Tmax - Максимальная температура - максимум температуры воздуха на высоте 2 м над землей.
R - Количество осадков - Количество выпавших осадков за период времени, мм. При наведении курсора мыши на число - период времени, за который выпало указанное количество осадков.
R24 - Количество осадков - Количество выпавших осадков за 24 часа, мм.
S - Снежный покров - Высота снежного покрова, см. При наведении курсора мыши на число - состояние снежного покрова и степень покрытия местности в баллах.